Voltar ao catálogo

STARLINK-31793

AtivoComunicaçõesVLEO
NORAD 60053·PAYLOAD·🇺🇸 United States

Lançado Jun 8, 2024 de Vandenberg Space Force Base

Loading…

Próximas Passagens (próximas 24 horas)

TLE

AtualizadoSource: CelesTrak SupGP

Época: Sep 14, 2026, 22:34 UTC

1 60053C 24112R   26257.94076389  .00056293  00000+0  16637-2 0  2578
2 60053  53.1561 277.3783 0001230  90.4570 280.4069 15.34353863    16

Acompanhe STARLINK-31793 em tempo real com AllMySat

Download on the App Store